Simultaneous Nadir Overpasses (SNOs) Predictions

Prediction of SNOs between GOES-17 and METOP-B Satellite Orbit:

Table of predicted SNOs for the next 14.0 days since TLE Epoch: 11/9/2024
Index Date Time (GOES-17) GOES-17 Lat,Lon METOP-B Lat,Lon Distance(km) Time Diff (sec)
1 11/10/2024 16:26:24 -0.00,-104.72 0.63,-107.67 335.83 80
2 11/11/2024 16:08:20 -0.00,-104.73 -0.49,-102.67 235.33 80
3 11/13/2024 04:27:11 0.00,-104.68 -0.59,-107.23 291.52 80
4 11/14/2024 04:03:47 0.00,-104.68 0.54,-102.23 279.34 80
5 11/15/2024 16:22:30 0.00,-104.74 0.47,-106.77 232.51 80
6 11/16/2024 16:04:26 0.00,-104.74 -0.68,-101.77 338.61 80
7 11/18/2024 04:23:17 -0.00,-104.69 -0.36,-106.34 188.06 80
8 11/19/2024 03:59:51 0.00,-104.69 0.74,-101.33 382.69 80
9 11/20/2024 16:18:35 -0.00,-104.74 0.23,-105.88 129.40 80
10 11/21/2024 16:00:29 -0.01,-104.75 -0.88,-100.87 442.07 80
